Hourly Weather Świecie

Today, 11 July, Saturday

Time Temperature Precipitation Wind Pressure Humidity
00:00 +14°C° 0 mm 4 mps 754 mmHg 88%
01:00 +13°C° 0 mm 3 mps 755 mmHg 88%
02:00 +12°C° 0 mm 3 mps 755 mmHg 89%
03:00 +11°C° 0 mm 3 mps 755 mmHg 90%
04:00 +11°C° 0 mm 3 mps 756 mmHg 90%
05:00 +12°C° 0 mm 4 mps 756 mmHg 86%
06:00 +13°C° 0 mm 4 mps 756 mmHg 82%
07:00 +13°C° 0 mm 5 mps 757 mmHg 75%
08:00 +14°C° 0 mm 5 mps 758 mmHg 70%
09:00 +15°C° 0 mm 5 mps 758 mmHg 65%
10:00 +16°C° 0 mm 5 mps 758 mmHg 60%
11:00 +18°C° 0 mm 4 mps 759 mmHg 59%
12:00 +18°C° 0 mm 4 mps 759 mmHg 58%
13:00 +18°C° 0 mm 4 mps 760 mmHg 58%
14:00 +19°C° 0.1 mm 4 mps 759 mmHg 57%
15:00 +19°C° 0.1 mm 4 mps 759 mmHg 57%
16:00 +19°C° 0.1 mm 3 mps 759 mmHg 57%
17:00 +18°C° 0.1 mm 3 mps 759 mmHg 62%
18:00 +17°C° 0.1 mm 2 mps 759 mmHg 67%
19:00 +16°C° 0.1 mm 2 mps 759 mmHg 72%
20:00 +15°C° 0 mm 2 mps 760 mmHg 74%
21:00 +14°C° 0 mm 2 mps 760 mmHg 76%
22:00 +13°C° 0 mm 2 mps 760 mmHg 77%
23:00 +13°C° 0 mm 2 mps 760 mmHg 79%

Tomorrow, 12 July, Sunday

Time Temperature Precipitation Wind Pressure Humidity
00:00 +12°C° 0 mm 2 mps 760 mmHg 80%
01:00 +10°C° 0 mm 2 mps 760 mmHg 82%
02:00 +10°C° 0 mm 2 mps 760 mmHg 84%
03:00 +10°C° 0 mm 2 mps 760 mmHg 86%
04:00 +10°C° 0 mm 2 mps 760 mmHg 88%
05:00 +12°C° 0 mm 2 mps 760 mmHg 83%
06:00 +13°C° 0 mm 3 mps 760 mmHg 77%
07:00 +15°C° 0 mm 4 mps 761 mmHg 72%
08:00 +17°C° 0 mm 4 mps 761 mmHg 66%
09:00 +18°C° 0 mm 4 mps 761 mmHg 60%
10:00 +19°C° 0 mm 5 mps 761 mmHg 55%
11:00 +19°C° 0.1 mm 5 mps 761 mmHg 53%
12:00 +20°C° 0.1 mm 5 mps 761 mmHg 52%
13:00 +20°C° 0.1 mm 5 mps 762 mmHg 51%
14:00 +20°C° 0 mm 5 mps 761 mmHg 51%
15:00 +20°C° 0 mm 4 mps 761 mmHg 52%
16:00 +20°C° 0 mm 4 mps 761 mmHg 53%
17:00 +19°C° 0.1 mm 4 mps 761 mmHg 59%
18:00 +17°C° 0.1 mm 4 mps 761 mmHg 65%
19:00 +16°C° 0.1 mm 3 mps 761 mmHg 72%
20:00 +14°C° 0 mm 3 mps 761 mmHg 75%
21:00 +13°C° 0 mm 3 mps 761 mmHg 79%
22:00 +12°C° 0 mm 2 mps 761 mmHg 82%
23:00 +12°C° 0 mm 2 mps 761 mmHg 85%

Day after tomorrow, 13 July, Monday

Time Temperature Precipitation Wind Pressure Humidity
00:00 +10°C° 0 mm 2 mps 761 mmHg 88%
01:00 +10°C° 0 mm 2 mps 761 mmHg 90%
02:00 +10°C° 0 mm 3 mps 761 mmHg 91%
03:00 +10°C° 0 mm 3 mps 760 mmHg 92%
04:00 +10°C° 0 mm 3 mps 760 mmHg 93%
05:00 +12°C° 0 mm 3 mps 760 mmHg 88%
06:00 +13°C° 0 mm 4 mps 760 mmHg 82%
07:00 +15°C° 0 mm 4 mps 760 mmHg 77%
08:00 +15°C° 0.1 mm 4 mps 760 mmHg 75%
09:00 +17°C° 0.1 mm 4 mps 760 mmHg 74%
10:00 +18°C° 0.1 mm 4 mps 760 mmHg 72%
11:00 +17°C° 0.2 mm 5 mps 760 mmHg 71%
12:00 +19°C° 0.2 mm 5 mps 760 mmHg 70%
13:00 +19°C° 0.2 mm 5 mps 760 mmHg 68%
14:00 +20°C° 0.2 mm 5 mps 759 mmHg 66%
15:00 +20°C° 0.2 mm 5 mps 759 mmHg 64%
16:00 +21°C° 0.2 mm 5 mps 759 mmHg 62%
17:00 +20°C° 0 mm 4 mps 759 mmHg 65%
18:00 +19°C° 0 mm 3 mps 758 mmHg 69%
19:00 +18°C° 0 mm 2 mps 758 mmHg 73%
20:00 +16°C° 0 mm 2 mps 758 mmHg 78%
21:00 +15°C° 0 mm 1 mps 758 mmHg 82%
22:00 +13°C° 0 mm 1 mps 758 mmHg 86%
23:00 +13°C° 0 mm 1 mps 758 mmHg 87%

14 July, Tuesday

Time Temperature Precipitation Wind Pressure Humidity
00:00 +13°C° 0 mm 1 mps 758 mmHg 88%
01:00 +12°C° 0 mm 1 mps 758 mmHg 89%
02:00 +12°C° 0 mm 1 mps 758 mmHg 90%
03:00 +12°C° 0 mm 1 mps 758 mmHg 91%
04:00 +11°C° 0 mm 1 mps 758 mmHg 92%
05:00 +13°C° 0 mm 1 mps 758 mmHg 86%
06:00 +15°C° 0 mm 1 mps 758 mmHg 79%
07:00 +18°C° 0 mm 1 mps 758 mmHg 72%
08:00 +19°C° 0 mm 1 mps 758 mmHg 67%
09:00 +20°C° 0 mm 1 mps 758 mmHg 61%
10:00 +21°C° 0 mm 2 mps 758 mmHg 55%
11:00 +21°C° 0 mm 2 mps 757 mmHg 53%
12:00 +23°C° 0 mm 2 mps 757 mmHg 51%
13:00 +24°C° 0 mm 2 mps 757 mmHg 49%
14:00 +24°C° 0 mm 2 mps 757 mmHg 50%
15:00 +24°C° 0 mm 1 mps 756 mmHg 51%
16:00 +24°C° 0 mm 1 mps 756 mmHg 52%
17:00 +23°C° 0.1 mm 1 mps 756 mmHg 57%
18:00 +22°C° 0.1 mm 1 mps 756 mmHg 63%
19:00 +21°C° 0.1 mm 1 mps 756 mmHg 69%
20:00 +20°C° 0 mm 1 mps 756 mmHg 72%
21:00 +18°C° 0 mm 1 mps 756 mmHg 75%
22:00 +16°C° 0 mm 1 mps 756 mmHg 78%
23:00 +16°C° 0 mm 1 mps 755 mmHg 80%

15 July, Wednesday

Time Temperature Precipitation Wind Pressure Humidity
00:00 +15°C° 0 mm 1 mps 755 mmHg 82%
01:00 +15°C° 0 mm 2 mps 755 mmHg 84%
02:00 +15°C° 0 mm 2 mps 755 mmHg 85%
03:00 +14°C° 0 mm 2 mps 755 mmHg 86%
04:00 +14°C° 0 mm 2 mps 754 mmHg 86%
05:00 +16°C° 0 mm 2 mps 754 mmHg 83%
06:00 +17°C° 0 mm 2 mps 754 mmHg 79%
07:00 +18°C° 0 mm 3 mps 754 mmHg 75%
08:00 +20°C° 0 mm 3 mps 754 mmHg 68%
09:00 +22°C° 0 mm 3 mps 753 mmHg 61%
10:00 +25°C° 0 mm 3 mps 753 mmHg 54%
11:00 +25°C° 0 mm 3 mps 753 mmHg 52%
12:00 +26°C° 0 mm 4 mps 753 mmHg 50%
13:00 +26°C° 0 mm 4 mps 752 mmHg 49%
14:00 +26°C° 0.2 mm 4 mps 752 mmHg 51%
15:00 +26°C° 0.2 mm 4 mps 751 mmHg 52%
16:00 +26°C° 0.2 mm 4 mps 751 mmHg 54%
17:00 +23°C° 0.6 mm 4 mps 751 mmHg 64%
18:00 +21°C° 0.6 mm 4 mps 751 mmHg 73%
19:00 +20°C° 0.6 mm 4 mps 751 mmHg 83%
20:00 +19°C° 0.7 mm 4 mps 751 mmHg 86%
21:00 +18°C° 0.7 mm 3 mps 751 mmHg 90%
22:00 +17°C° 0.7 mm 2 mps 751 mmHg 93%
23:00 +16°C° 0.1 mm 3 mps 751 mmHg 93%

16 July, Thursday

Time Temperature Precipitation Wind Pressure Humidity
00:00 +14°C° 0.1 mm 3 mps 752 mmHg 92%
01:00 +14°C° 0.1 mm 4 mps 752 mmHg 92%
02:00 +13°C° 0 mm 4 mps 752 mmHg 93%
03:00 +12°C° 0 mm 3 mps 752 mmHg 94%
04:00 +12°C° 0 mm 3 mps 752 mmHg 95%
05:00 +13°C° 0 mm 4 mps 752 mmHg 91%
06:00 +13°C° 0 mm 4 mps 752 mmHg 87%
07:00 +14°C° 0 mm 4 mps 753 mmHg 83%
08:00 +17°C° 0 mm 4 mps 753 mmHg 76%
09:00 +17°C° 0 mm 5 mps 753 mmHg 68%
10:00 +19°C° 0 mm 5 mps 753 mmHg 61%
11:00 +19°C° 0.1 mm 5 mps 752 mmHg 59%
12:00 +20°C° 0.1 mm 5 mps 752 mmHg 57%
13:00 +20°C° 0.1 mm 5 mps 752 mmHg 54%
14:00 +20°C° 0.1 mm 5 mps 752 mmHg 57%
15:00 +19°C° 0.1 mm 5 mps 752 mmHg 60%
16:00 +19°C° 0.1 mm 5 mps 752 mmHg 62%
17:00 +18°C° 0.1 mm 4 mps 752 mmHg 66%
18:00 +18°C° 0.1 mm 3 mps 752 mmHg 70%
19:00 +17°C° 0.1 mm 3 mps 752 mmHg 74%
20:00 +16°C° 0 mm 3 mps 752 mmHg 77%
21:00 +14°C° 0 mm 3 mps 752 mmHg 80%
22:00 +14°C° 0 mm 3 mps 752 mmHg 83%
23:00 +13°C° 0 mm 3 mps 752 mmHg 85%
Show more